Location: Erdweis
(48.5167°N, 15.3500°E)
Time: 14:31:34
(UTC+00:00)

USA 234 - Pass Details

Date: 23 January 2021
Orbit: 1100 x 1107 km, 123.0° (Epoch: 01 March)

Event Time Altitude Azimuth Distance (km) Brightness Sun altitude
Exits shadow 20:01:22 35° 299° (WNW) 1,715 4.5 -42.1°
Drops below altitude 10° 20:04:51 10° 304° (NW) 2,966 6.1 -42.7°
Sets 20:07:21 0° 305° (NW) 3,928 6.9 -43.1°
